Zurück zum Katalog

ONEWEB-0150

AktivKommunikationPO
NORAD 48047·PAYLOAD·🇬🇧 United Kingdom

Gestartet Mar 25, 2021 von Vostochny Cosmodrome

Loading…

Nächste Überflüge (nächste 24 Stunden)

TLE

AktuellSource: CelesTrak SupGP

Epoche: Sep 14, 2026, 22:10 UTC

1 48047C 21025F   26257.92376574  .00000972  00000+0  26650-2 0  2573
2 48047  87.8920 302.3691 0001919 103.1362 292.2187 13.13465417    16

Verfolge ONEWEB-0150 in Echtzeit mit AllMySat

Download on the App Store